Location: Gebenbach
(49.5378°N, 11.8735°E)
Time: 03:25:57
(UTC+00:00)

GEOS 3 Rocket - Pass Details

Date: 29 October 2020
Orbit: 770 x 850 km, 115.0° (Epoch: 24 November)

Event Time Altitude Azimuth Distance (km) Brightness Sun altitude
Exits shadow 18:17:20 48° 138° (SE) 1,081 3.9 -23.6°
Maximum altitude 18:18:54 90° 226° (SW) 847 3.6 -23.8°
Drops below altitude 10° 18:24:20 10° 319° (NW) 2,480 6.7 -24.7°
Sets 18:26:40 0° 319° (NW) 3,422 7.6 -25.1°
